Home > Weather > Verona > Past weeks

Flag for Italy Weather for the Past 2 Weeks in Verona, Italy

Now
55 °F

Scattered clouds.


Feels Like: 55 °F
Forecast: 48 / 63 °F
Wind: 5 mph from Northwest

Location: Verona / Villafranca

Current Time: May 1, 2016 at 8:32:37 PM

Latest Report: May 1, 2016 at 7:50 PM


Visibility: N/A

Pressure: 29.92 "Hg

Humidity: 77%

Dew Point: 48 °F

Location of VeronaLocation

Historic Weather in Verona — Graph

°F

Verona Temperature Yesterday

Maximum temperature yesterday: 70 °F (at 4:20 PM)
Minimum temperature yesterday: 41 °F (at 5:20 AM)
Average temperature yesterday: 57 °F

High & Low Weather Summary for the Past Weeks

 TemperatureHumidityPressure
High75 °F (Apr 18, 2:20 PM)100% (Apr 24, 3:20 AM)30.39 "Hg (Apr 24, 3:20 AM)
Low37 °F (Apr 26, 5:50 AM)23% (Apr 18, 6:20 PM)29.53 "Hg (Apr 24, 4:50 AM)
Average57 °F64%29.91 "Hg
* Reported Apr 16 7:20 PM — May 1 7:20 PM, Verona, Weather by CustomWeather, © 2016

Note: Actual official high and low records may vary slightly from our data, if they occured in-between our weather recording intervals... More about our weather records

Advertising

Verona Weather History for the Previous 24 Hours

Scroll right to see more
 ConditionsComfort  
Time TempWeatherWind HumidityBarometerVisibility
7:20 PM
Sun, May 1
55 °FPartly sunny.6 mph72%29.92 "HgN/A
6:50 PM57 °FPartly sunny.6 mph67%29.92 "HgN/A
6:20 PM57 °FPartly sunny.5 mph67%29.92 "HgN/A
5:50 PM55 °FPartly sunny.6 mph72%29.92 "HgN/A
5:20 PM55 °FPartly sunny.6 mph77%29.92 "HgN/A
4:50 PM55 °FBroken clouds.5 mph82%29.89 "HgN/A
4:20 PM55 °FLight rain. Broken clouds.6 mph72%29.89 "HgN/A
3:50 PM55 °FLight rain. Broken clouds.9 mph72%29.89 "HgN/A
3:20 PM57 °FLight rain. Broken clouds.10 mph67%29.89 "HgN/A
2:50 PM57 °FLight rain. Broken clouds.9 mph67%29.89 "HgN/A
2:20 PM55 °FBroken clouds.9 mph72%29.89 "HgN/A
1:50 PM55 °FLight rain. Broken clouds.9 mph72%29.89 "HgN/A
1:20 PM54 °FLight rain. Broken clouds.10 mph77%29.89 "HgN/A
12:50 PM54 °FLight rain. Broken clouds.12 mph77%29.89 "HgN/A
12:20 PM54 °FLight rain. Broken clouds.12 mph77%29.89 "HgN/A
11:50 AM54 °FBroken clouds.9 mph77%29.89 "Hg5 mi
11:20 AM52 °FLight rain. Broken clouds.10 mph82%29.89 "Hg5 mi
10:50 AM52 °FLight rain. Broken clouds.10 mph88%29.89 "Hg5 mi
10:20 AM52 °FLight rain. Broken clouds.7 mph88%29.89 "Hg5 mi
9:50 AM52 °FLight rain. Broken clouds.7 mph88%29.86 "Hg5 mi
8:50 AM52 °FLight rain. Broken clouds.7 mph88%29.86 "Hg5 mi
8:20 AM52 °FLight rain. Broken clouds.9 mph82%29.86 "Hg5 mi
7:50 AM52 °FLight rain. Broken clouds.9 mph82%29.86 "Hg5 mi
7:20 AM52 °FBroken clouds.7 mph88%29.86 "Hg5 mi
6:20 AM50 °FRain. Partly cloudy.6 mph94%29.83 "HgN/A
5:50 AM50 °FRain. Partly cloudy.7 mph88%29.83 "HgN/A
5:20 AM50 °FRain. Passing clouds.8 mph88%29.83 "HgN/A
4:20 AM50 °FLight rain. Passing clouds.10 mph88%29.86 "HgN/A
3:50 AM50 °FRain. Passing clouds.10 mph88%29.86 "HgN/A
3:20 AM50 °FRain. Passing clouds.8 mph88%29.86 "Hg4 mi
2:50 AM50 °FRain. Passing clouds.6 mph88%29.89 "Hg5 mi
2:20 AM50 °FRain. Passing clouds.2 mph94%29.89 "Hg5 mi
1:50 AM52 °FPassing clouds.3 mph88%29.89 "HgN/A
1:20 AM54 °FPassing clouds.5 mph72%29.89 "HgN/A
12:50 AM52 °FPartly cloudy.5 mph88%29.92 "HgN/A
11:50 PM
Sat, Apr 30
54 °FPassing clouds.5 mph77%29.92 "HgN/A
10:50 PM54 °FLight rain. Passing clouds.5 mph72%29.92 "Hg5 mi
10:20 PM55 °FPassing clouds.6 mph67%29.92 "Hg5 mi
9:50 PM57 °FLight rain. Passing clouds.9 mph55%29.92 "Hg5 mi
9:20 PM55 °FLight rain. Partly sunny.9 mph67%29.95 "Hg5 mi
8:50 PM57 °FPartly sunny.9 mph67%29.95 "HgN/A
8:20 PM55 °FLight rain. Partly sunny.12 mph82%29.95 "HgN/A
Weather by CustomWeather, © 2016

See weather overviewHow to use our weather pages